Location: Paris
(18.5000°N, 73.9167°W)
Time: 11:56:12
(UTC+00:00)

Daily predictions for brighter satellites

Satellite Brightness Start Highest point End
(mag) Time Altitude Azimuth Time Altitude Azimuth Time Altitude Azimuth
H-2A ROCKET BODY 3.3 23:22:41 10° NW 23:26:45 50° NNE 23:42:03 10° E
GOES 2 Rocket 4.5 23:32:23 10° SSW 23:35:42 21° SSE 23:39:25 10° E
H-2A R/B 3.9 15:35:56 10° WSW 23:36:02 54° SSE 23:41:06 10° E
BlueWalker 3 3.6 23:32:50 10° WSW 23:36:21 37° NW 23:39:54 10° NNE
Meteor 2-11 Rocket 4.4 23:31:32 10° N 23:37:34 68° E 23:43:34 10° SSE
Cosmos 1674 Rocket 3.5 23:33:56 10° N 23:38:21 68° E 23:42:45 10° SSE
deb Centaur AC-2 4.4 23:33:46 10° WNW 23:38:29 74° NNE 23:44:08 10° ESE
Radarsat Rocket 4.2 23:32:30 10° SSE 23:39:28 80° ENE 23:45:40 10° N
Cosmos 1992 Rocket 3.9 23:35:12 10° S 23:40:23 79° ESE 23:45:35 10° NNE
Cosmos 1025 Rocket 4.2 23:39:19 10° NNE 23:42:47 23° E 23:46:14 10° SE
Cosmos 1455 1.9 23:40:16 10° S 23:43:48 83° E 23:47:21 10° N
Cosmos 1850 Rocket 4.0 23:39:48 10° N 23:45:02 74° ENE 23:50:12 10° SSE
Star 37E S/N 40062 1.8 23:45:17 10° WNW 23:46:42 56° SSW 23:47:56 14° SE
Meteor PRIRODA 3.8 23:44:25 10° SSE 23:47:39 42° ENE 23:50:53 10° N
DELTA 2 R/B (1) 4.4 23:42:43 10° NW 23:47:55 38° NNE 23:52:39 12° E
ATLAS 3B R/B 2.9 23:41:55 10° SSW 23:48:33 78° WNW 23:55:44 10° NNE
Cosmos 2181 Rocket 4.0 23:45:49 10° S 23:51:51 62° E 23:57:57 10° NNE
Cosmos 1953 3.7 23:51:32 10° SSW 23:55:07 40° W 23:58:42 10° NNW
Cosmos 1892 2.5 23:51:55 10° N 23:55:23 56° E 23:58:50 10° SSE
